Weather History for Adrian, MI

Change the Weather History Date:

Wednesday, February 20, 2013

  Actual Average Record
Temperature  
Mean Temperature 19 °F -  
Max Temperature 21 °F 38 °F 59 °F (1983)
Min Temperature 17 °F 19 °F -8 °F (1978)
Degree Days  
Heating Degree Days 46    
Moisture  
Dew Point 11 °F    
Average Humidity 70    
Maximum Humidity 79    
Minimum Humidity 59    
Precipitation  
Precipitation 0.00 in - - ()
Sea Level Pressure  
Sea Level Pressure 30.15 in    
Wind  
Wind Speed 12 mph (NW)    
Max Wind Speed 17 mph    
Max Gust Speed 24 mph    
Visibility 7 miles    
Events Snow    
Averages and records for this station are not official NWS values.
T = Trace of Precipitation, MM = Missing Value Source: NWS Daily Summary

Daily Weather History Graph

Daily Weather History Graph

Search for Another Location

Airport:

Trip Planner

Search our weather history database for the weather conditions in past years. The results will help you decide how hot, cold, wet, or windy it might be!

Date:

Astronomy

Feb. 20, 2013 Rise Set
Actual Time 7:24 AM EST 6:16 PM EST
Civil Twilight 6:56 AM EST 6:44 PM EST
Nautical Twilight 6:23 AM EST 7:16 PM EST
Astronomical Twilight 5:51 AM EST 7:49 PM EST
Moon 1:33 PM EST (2/20) 3:46 AM EST (2/20)
Length of Visible Light 11h 48m
Length of Day
10h 51m
Waxing Gibbous, 76% of the Moon is Illuminated
Feb 20
Waxing Gibbous
Feb 25
Full
Mar 4
Last Quarter
Mar 11
New
Mar 19
First Quarter

Hourly Weather History & Observations

Time (EST) Temp. Windchill Dew Point Humidity Pressure Visibility Wind Dir Wind Speed Gust Speed Precip Events Conditions
12:23 AM 17.6 °F 5.0 °F 10.4 °F 73% 29.98 in 8.0 mi West 11.5 mph - 0.00 in Snow Light Snow
12:53 AM 18.0 °F 5.4 °F 12.0 °F 78% 30.03 in 6.0 mi West 11.5 mph 19.6 mph 0.00 in Snow Light Snow
1:53 AM 18.0 °F 4.2 °F 12.0 °F 78% 30.05 in 5.0 mi WNW 13.8 mph 19.6 mph 0.00 in Snow Light Snow
2:53 AM 18.0 °F 6.1 °F 12.0 °F 78% 30.06 in 3.0 mi WNW 10.4 mph 19.6 mph 0.00 in Snow Light Snow
3:11 AM 17.6 °F 4.3 °F 10.4 °F 73% 30.02 in 2.5 mi NW 12.7 mph 23.0 mph 0.00 in Snow Light Snow
3:15 AM 17.6 °F 4.3 °F 10.4 °F 73% 30.01 in 4.0 mi NW 12.7 mph 23.0 mph 0.00 in Snow Light Snow
3:53 AM 18.0 °F 4.8 °F 10.0 °F 71% 30.06 in 10.0 mi WNW 12.7 mph 20.7 mph 0.00 in   Overcast
4:38 AM 17.6 °F 3.7 °F 10.4 °F 73% 30.03 in 5.0 mi WNW 13.8 mph - 0.00 in Snow Light Snow
4:53 AM 18.0 °F 3.6 °F 10.9 °F 74% 30.09 in 5.0 mi WNW 15.0 mph 19.6 mph 0.00 in Snow Light Snow
5:15 AM 17.6 °F 3.7 °F 10.4 °F 73% 30.05 in 4.0 mi WNW 13.8 mph - 0.00 in Snow Light Snow
5:29 AM 17.6 °F 2.2 °F 10.4 °F 73% 30.05 in 9.0 mi WNW 17.3 mph 24.2 mph 0.00 in   Overcast
5:53 AM 17.1 °F 3.6 °F 10.9 °F 77% 30.12 in 8.0 mi WNW 12.7 mph - 0.00 in Snow Light Snow
6:09 AM 17.6 °F 3.2 °F 10.4 °F 73% 30.07 in 6.0 mi NW 15.0 mph 20.7 mph 0.00 in Snow Light Snow
6:38 AM 17.6 °F 5.0 °F 12.2 °F 79% 30.08 in 2.0 mi NNW 11.5 mph 18.4 mph 0.00 in Snow Light Snow
6:46 AM 17.6 °F 4.3 °F 10.4 °F 73% 30.08 in 4.0 mi NW 12.7 mph - 0.00 in Snow Light Snow
6:53 AM 17.1 °F 5.0 °F 10.9 °F 77% 30.14 in 7.0 mi NNW 10.4 mph - 0.00 in Snow Light Snow
8:53 AM 18.0 °F 6.1 °F 9.0 °F 68% 30.17 in 8.0 mi NW 10.4 mph 19.6 mph 0.00 in   Overcast
9:53 AM 18.0 °F 5.4 °F 10.0 °F 71% 30.18 in 8.0 mi NNW 11.5 mph 20.7 mph 0.00 in   Overcast
10:53 AM 19.0 °F 4.0 °F 7.0 °F 59% 30.19 in 10.0 mi NW 17.3 mph 24.2 mph 0.00 in   Overcast
11:53 AM 19.9 °F 6.2 °F 8.1 °F 60% 30.21 in 10.0 mi NW 15.0 mph 20.7 mph N/A   Overcast
12:53 PM 19.9 °F 7.9 °F 9.0 °F 62% 30.22 in 7.0 mi NNW 11.5 mph 19.6 mph 0.00 in Snow Light Snow
1:53 PM 19.9 °F 8.6 °F 10.9 °F 68% 30.22 in 5.0 mi NW 10.4 mph - 0.00 in Snow Light Snow
2:53 PM 21.0 °F 9.3 °F 10.0 °F 63% 30.22 in 10.0 mi NNW 11.5 mph - 0.00 in   Overcast
3:53 PM 21.0 °F 10.6 °F 10.9 °F 65% 30.26 in 8.0 mi WNW 9.2 mph - 0.00 in Snow Light Snow
4:53 PM 21.9 °F 11.0 °F 12.0 °F 66% 30.27 in 10.0 mi NW 10.4 mph - 0.00 in   Overcast
5:53 PM 21.0 °F 8.1 °F 10.9 °F 65% 30.26 in 10.0 mi NNW 13.8 mph 19.6 mph N/A   Overcast
6:53 PM 21.0 °F 8.6 °F 10.9 °F 65% 30.27 in 10.0 mi NW 12.7 mph 21.9 mph N/A   Overcast
7:53 PM 21.0 °F 10.6 °F 12.0 °F 68% 30.28 in 10.0 mi NW 9.2 mph - N/A   Overcast
8:53 PM 21.9 °F 11.7 °F 12.0 °F 66% 30.29 in 10.0 mi NNW 9.2 mph 18.4 mph N/A   Overcast
9:21 PM 21.2 °F 10.1 °F 12.2 °F 68% 30.24 in 10.0 mi NW 10.4 mph - N/A   Overcast
9:53 PM 21.9 °F 11.0 °F 12.9 °F 68% 30.29 in 10.0 mi NW 10.4 mph 18.4 mph N/A   Overcast
10:53 PM 21.9 °F 11.0 °F 12.9 °F 68% 30.29 in 9.0 mi NNW 10.4 mph - 0.00 in Snow Light Snow
11:53 PM 21.9 °F 11.0 °F 14.0 °F 72% 30.29 in 8.0 mi NNW 10.4 mph - 0.00 in   Overcast